Total_Precipitation_Accumulation
0.01 0.02 0.03 0.04 0.05 0.03 0.04 0.10 0.18 0.21 0.25 0.13 0.12 0.14 0.19 0.13 0.09 0.07 0.07 0.14 0.31 0.62 0.73 0.67 0.68 0.70 0.85 1.02 0.94 0.79 0.74 0.88 0.77 0.50 0.53 0.42 0.35 0.29 0.27 0.39 0.46 0.51 0.57
0.01 0.02 0.04 0.05 0.06 0.06 0.10 0.13 0.19 0.28 0.17 0.13 0.12 0.16 0.28 0.33 0.19 0.19 0.18 0.16 0.34 0.45 0.59 0.78 0.87 0.75 0.74 0.63 0.64 0.95 0.83 0.70 0.90 0.82 0.94 1.05 0.88 0.69 0.61 0.55 0.49 0.49 0.52
0.00 0.02 0.02 0.05 0.09 0.17 0.22 0.19 0.36 0.42 0.37 0.30 0.23 0.21 0.23 0.29 0.28 0.47 0.37 0.20 0.44 0.44 0.61 0.73 0.82 0.96 0.96 1.02 0.94 0.71 0.70 0.75 0.73 0.78 1.03 1.24 1.52 1.21 1.21 1.38 1.28 1.06 1.10
0.00 0.00 0.04 0.12 0.20 0.29 0.32 0.45 0.52 0.60 0.59 0.62 0.56 0.46 0.37 0.27 0.24 0.30 0.33 0.31 0.30 0.39 0.47 0.55 0.55 0.61 0.88 1.06 1.22 1.32 1.08 0.89 0.86 0.93 1.05 1.21 1.31 1.52 1.32 1.44 1.84 1.63 1.28
0.00 0.00 0.00 0.05 0.16 0.26 0.42 0.76 0.89 1.03 1.06 0.97 0.87 0.58 0.38 0.39 0.56 0.47 0.51 0.39 0.32 0.34 0.43 0.48 0.61 0.67 0.63 0.72 0.75 1.03 1.37 1.46 1.47 1.36 1.35 1.60 1.48 1.05 1.10 1.22 1.43 1.54 1.39
0.00 0.00 0.00 0.00 0.01 0.06 0.12 0.16 0.31 0.68 0.99 0.79 0.93 0.48 0.46 0.33 0.39 0.60 0.63 0.77 0.70 0.58 0.70 0.63 0.58 0.64 0.75 0.78 0.89 0.87 0.91 1.27 1.31 1.34 1.49 1.48 1.49 1.44 1.27 1.02 1.06 1.22 1.25
0.00 0.00 0.00 0.00 0.00 0.00 0.02 0.05 0.08 0.05 0.11 0.17 0.27 0.22 0.15 0.08 0.06 0.15 0.26 0.45 0.68 0.81 0.83 0.93 0.87 0.97 0.89 0.83 0.86 0.82 0.81 0.88 1.08 1.14 1.14 1.25 1.29 1.18 1.04 1.07 0.97 1.06 1.30
0.00 0.00 0.00 0.00 0.00 0.00 0.00 0.00 0.00 0.00 0.01 0.03 0.07 0.08 0.04 0.01 0.01 0.01 0.05 0.08 0.13 0.22 0.27 0.30 0.26 0.28 0.40 0.43 0.48 0.61 0.72 0.82 0.91 1.00 1.11 1.24 1.24 1.13 1.08 1.05 0.89 0.78 0.72
0.00 0.00 0.00 0.00 0.00 0.00 0.00 0.00 0.00 0.00 0.00 0.00 0.01 0.02 0.02 0.01 0.01 0.01 0.00 0.02 0.05 0.07 0.08 0.08 0.08 0.09 0.08 0.08 0.07 0.07 0.09 0.15 0.19 0.23 0.29 0.36 0.46 0.51 0.53 0.59 0.79 0.85 0.92
0.00 0.00 0.00 0.00 0.00 0.00 0.00 0.00 0.00 0.00 0.01 0.01 0.00 0.00 0.00 0.01 0.00 0.01 0.00 0.00 0.01 0.01 0.02 0.04 0.03 0.04 0.04 0.05 0.07 0.07 0.08 0.08 0.06 0.05 0.05 0.03 0.03 0.04 0.06 0.11 0.17 0.25 0.42
0.00 0.00 0.00 0.00 0.00 0.00 0.00 0.00 0.00 0.00 0.00 0.01 0.01 0.01 0.00 0.00 0.00 0.00 0.01 0.00 0.01 0.01 0.01 0.01 0.01 0.00 0.01 0.01 0.01 0.03 0.05 0.03 0.01 0.01 0.01 0.02 0.02 0.01 0.01 0.02 0.03 0.05 0.07
0.00 0.00 0.00 0.00 0.00 0.00 0.00 0.00 0.00 0.00 0.00 0.00 0.00 0.01 0.01 0.00 0.00 0.00 0.00 0.01 0.00 0.01 0.01 0.00 0.00 0.00 0.00 0.00 0.00 0.00 0.00 0.00 0.00 0.00 0.00 0.01 0.01 0.01 0.01 0.00 0.00 0.01 0.02
0.00 0.00 0.00 0.00 0.00 0.00 0.00 0.01 0.00 0.00 0.00 0.00 0.00 0.01 0.02 0.01 0.00 0.00 0.00 0.00 0.00 0.00 0.01 0.00 0.00 0.00 0.00 0.00 0.00 0.00 0.00 0.00 0.00 0.00 0.00 0.01 0.00 0.00 0.00 0.00 0.00 0.00 0.01
0.00 0.00 0.00 0.00 0.00 0.00 0.00 0.00 0.01 0.01 0.00 0.00 0.00 0.00 0.01 0.01 0.00 0.00 0.00 0.00 0.00 0.00 0.01 0.00 0.00 0.00 0.00 0.00 0.00 0.00 0.00 0.00 0.00 0.00 0.00 0.00 0.00 0.00 0.00 0.00 0.00 0.00 0.00
0.00 0.00 0.00 0.00 0.00 0.00 0.00 0.00 0.00 0.01 0.00 0.00 0.00 0.00 0.01 0.01 0.01 0.00 0.00 0.00 0.00 0.00 0.00 0.00 0.00 0.00 0.00 0.00 0.00 0.00 0.00 0.00 0.00 0.00 0.00 0.00 0.00 0.00 0.00 0.00 0.00 0.00 0.00
0.00 0.00 0.00 0.00 0.00 0.00 0.00 0.00 0.00 0.00 0.00 0.00 0.00 0.00 0.00 0.00 0.01 0.00 0.00 0.00 0.00 0.00 0.00 0.00 0.00 0.00 0.01 0.01 0.01 0.01 0.00 0.01 0.00 0.00 0.00 0.00 0.00 0.00 0.00 0.00 0.00 0.00 0.00
0.00 0.00 0.00 0.00 0.00 0.00 0.00 0.00 0.00 0.01 0.02 0.01 0.00 0.00 0.00 0.00 0.01 0.01 0.00 0.00 0.00 0.00 0.00 0.00 0.01 0.01 0.00 0.00 0.00 0.01 0.02 0.02 0.01 0.00 0.00 0.00 0.00 0.00 0.00 0.00 0.00 0.00 0.00
0.00 0.00 0.00 0.00 0.00 0.00 0.00 0.00 0.01 0.01 0.03 0.06 0.02 0.00 0.00 0.00 0.01 0.01 0.00 0.00 0.00 0.00 0.00 0.00 0.01 0.01 0.01 0.01 0.01 0.01 0.03 0.02 0.02 0.01 0.00 0.00 0.00 0.00 0.01 0.01 0.00 0.00 0.00
0.00 0.00 0.00 0.00 0.00 0.00 0.00 0.00 0.00 0.00 0.01 0.01 0.01 0.00 0.00 0.00 0.00 0.00 0.00 0.00 0.00 0.00 0.00 0.00 0.00 0.01 0.01 0.01 0.02 0.02 0.03 0.03 0.03 0.03 0.00 0.00 0.01 0.01 0.01 0.01 0.01 0.00 0.00
0.00 0.00 0.00 0.00 0.00 0.00 0.00 0.00 0.00 0.00 0.00 0.00 0.00 0.00 0.00 0.00 0.00 0.00 0.00 0.00 0.00 0.00 0.00 0.00 0.00 0.00 0.01 0.01 0.01 0.02 0.02 0.02 0.03 0.05 0.01 0.01 0.00 0.01 0.01 0.01 0.01 0.01 0.01
0.00 0.00 0.00 0.00 0.00 0.00 0.00 0.00 0.00 0.01 0.01 0.00 0.00 0.00 0.01 0.01 0.01 0.01 0.01 0.00 0.01 0.00 0.00 0.00 0.00 0.01 0.01 0.01 0.00 0.01 0.01 0.02 0.03 0.07 0.03 0.00 0.00 0.01 0.01 0.01 0.01 0.01 0.01
0.00 0.00 0.00 0.00 0.00 0.00 0.00 0.00 0.00 0.00 0.00 0.00 0.00 0.00 0.00 0.00 0.00 0.01 0.01 0.01 0.01 0.01 0.01 0.01 0.00 0.00 0.01 0.02 0.02 0.02 0.01 0.02 0.03 0.06 0.02 0.00 0.00 0.01 0.01 0.01 0.01 0.01 0.01
0.00 0.00 0.00 0.00 0.00 0.00 0.00 0.00 0.00 0.00 0.00 0.00 0.00 0.00 0.00 0.00 0.01 0.01 0.01 0.01 0.01 0.00 0.01 0.01 0.01 0.00 0.01 0.01 0.02 0.02 0.03 0.03 0.06 0.08 0.02 0.01 0.01 0.01 0.01 0.01 0.01 0.01 0.01
0.00 0.00 0.00 0.00 0.00 0.00 0.00 0.00 0.00 0.00 0.00 0.00 0.00 0.00 0.00 0.00 0.01 0.01 0.01 0.01 0.00 0.00 0.00 0.01 0.01 0.02 0.01 0.01 0.01 0.02 0.03 0.05 0.04 0.03 0.01 0.01 0.01 0.01 0.01 0.01 0.01 0.01 0.01
0.00 0.00 0.00 0.00 0.00 0.00 0.00 0.00 0.00 0.00 0.00 0.00 0.01 0.01 0.01 0.01 0.00 0.01 0.00 0.00 0.00 0.00 0.00 0.00 0.01 0.01 0.02 0.02 0.02 0.04 0.05 0.03 0.01 0.00 0.00 0.01 0.01 0.01 0.02 0.01 0.01 0.01 0.01
0.00 0.00 0.00 0.00 0.00 0.00 0.00 0.00 0.00 0.00 0.00 0.00 0.01 0.01 0.01 0.01 0.00 0.00 0.00 0.00 0.00 0.00 0.00 0.00 0.01 0.01 0.02 0.03 0.04 0.04 0.03 0.01 0.00 0.00 0.00 0.00 0.01 0.01 0.01 0.01 0.01 0.02 0.01